User: anonymous   Login
Location: Unspecified
(0.0000°N, 0.0000°E)
Time: 17:03:06
(UTC+00:00)
Language:

Nadezhda 2 - Orbit

View from above orbital plane
View from above orbital plane
View from above satellite
View from above satellite

Ground track
Ground track

The orbit data is extracted from the following two-line orbital elements,

1 20508U 90017A   18174.76732090 +.00000021 +00000-0 +63171-5 0  9993
2 20508 082.9570 067.3684 0042836 287.0131 105.2000 13.74261841419927
Epoch (UTC): 23 June 2018 18:24:56
Eccentricity: 0.0042836
inclination: 82.9570°
perigee height: 953 km
apogee height: 1016 km
right ascension of ascending node: 67.3684°
argument of perigee: 287.0131°
revolutions per day: 13.74261841
mean anomaly at epoch: 105.2000°
orbit number at epoch: 41992

The dashed part of the orbit path shows where the satellite is in the earth's shadow,  

DLR